QPF
0.02 0.00 0.00 0.00 0.00 0.00 0.00 0.00 0.00 0.02 0.03 0.00 0.00 0.01 0.00 0.00 0.00 0.00 0.00 0.00 0.00 0.00 0.00 0.00 0.01 0.04 0.07 0.14 0.03 0.07 0.02 0.00 0.01 0.02 0.04 0.02 0.02 0.01 0.01 0.00 0.00 0.00 0.00 0.00 0.00 0.00 0.02 0.00 0.00
0.00 0.00 0.00 0.00 0.00 0.00 0.00 0.00 0.00 0.01 0.03 0.00 0.00 0.00 0.00 0.00 0.00 0.00 0.00 0.00 0.00 0.00 0.00 0.00 0.01 0.04 0.06 0.11 0.09 0.08 0.05 0.02 0.02 0.02 0.06 0.09 0.04 0.00 0.02 0.01 0.01 0.00 0.00 0.00 0.01 0.03 0.02 0.01 0.00
0.00 0.00 0.00 0.00 0.00 0.00 0.00 0.00 0.00 0.02 0.05 0.01 0.00 0.01 0.00 0.00 0.00 0.00 0.00 0.00 0.00 0.00 0.00 0.00 0.02 0.04 0.04 0.07 0.07 0.04 0.04 0.09 0.07 0.01 0.01 0.03 0.01 0.02 0.04 0.03 0.04 0.03 0.04 0.07 0.10 0.08 0.02 0.01 0.00
0.00 0.00 0.00 0.00 0.00 0.00 0.00 0.00 0.00 0.00 0.01 0.00 0.01 0.01 0.00 0.00 0.00 0.00 0.00 0.00 0.00 0.00 0.00 0.00 0.01 0.01 0.05 0.10 0.04 0.00 0.00 0.04 0.04 0.01 0.00 0.01 0.00 0.03 0.03 0.01 0.03 0.04 0.01 0.05 0.06 0.06 0.01 0.00 0.00
0.00 0.00 0.00 0.00 0.00 0.00 0.00 0.00 0.00 0.00 0.00 0.01 0.01 0.00 0.00 0.00 0.00 0.00 0.00 0.00 0.00 0.00 0.00 0.00 0.03 0.01 0.02 0.06 0.02 0.01 0.04 0.03 0.00 0.00 0.01 0.01 0.00 0.00 0.00 0.00 0.00 0.00 0.00 0.01 0.04 0.06 0.01 0.00 0.00
0.00 0.00 0.00 0.00 0.00 0.00 0.00 0.00 0.00 0.00 0.00 0.00 0.01 0.01 0.00 0.00 0.00 0.00 0.00 0.00 0.00 0.00 0.00 0.00 0.01 0.01 0.04 0.03 0.02 0.01 0.01 0.01 0.00 0.01 0.05 0.04 0.02 0.01 0.01 0.00 0.00 0.00 0.00 0.00 0.06 0.03 0.00 0.00 0.00
0.00 0.00 0.00 0.00 0.00 0.00 0.00 0.00 0.00 0.00 0.00 0.00 0.00 0.00 0.00 0.00 0.00 0.00 0.00 0.00 0.00 0.00 0.00 0.00 0.00 0.01 0.01 0.00 0.00 0.00 0.00 0.02 0.00 0.03 0.04 0.01 0.04 0.01 0.00 0.00 0.00 0.00 0.00 0.00 0.03 0.00 0.00 0.00 0.00
0.00 0.00 0.00 0.00 0.00 0.00 0.00 0.00 0.00 0.00 0.00 0.00 0.00 0.00 0.00 0.00 0.00 0.00 0.00 0.00 0.00 0.01 0.03 0.01 0.00 0.00 0.00 0.00 0.00 0.00 0.00 0.00 0.01 0.02 0.00 0.00 0.02 0.00 0.00 0.02 0.02 0.01 0.05 0.03 0.03 0.09 0.02 0.00 0.00
0.00 0.00 0.00 0.00 0.00 0.00 0.00 0.00 0.00 0.00 0.00 0.00 0.01 0.02 0.00 0.00 0.00 0.00 0.00 0.00 0.00 0.03 0.03 0.02 0.00 0.00 0.00 0.00 0.00 0.01 0.00 0.00 0.02 0.10 0.06 0.00 0.00 0.00 0.02 0.02 0.06 0.12 0.21 0.04 0.01 0.03 0.06 0.01 0.00
0.00 0.00 0.00 0.00 0.00 0.00 0.00 0.00 0.00 0.00 0.00 0.00 0.01 0.01 0.02 0.00 0.00 0.00 0.00 0.00 0.00 0.00 0.00 0.00 0.00 0.00 0.00 0.00 0.00 0.02 0.02 0.11 0.11 0.11 0.06 0.01 0.00 0.00 0.01 0.01 0.10 0.29 0.32 0.02 0.00 0.00 0.02 0.01 0.03
0.00 0.00 0.00 0.00 0.00 0.00 0.00 0.00 0.00 0.00 0.00 0.00 0.00 0.00 0.01 0.00 0.00 0.00 0.00 0.00 0.01 0.00 0.00 0.00 0.00 0.00 0.00 0.00 0.00 0.00 0.00 0.03 0.00 0.00 0.00 0.00 0.00 0.00 0.05 0.22 0.27 0.28 0.14 0.01 0.01 0.00 0.01 0.00 0.00
0.00 0.00 0.00 0.00 0.00 0.00 0.00 0.00 0.00 0.00 0.00 0.00 0.00 0.00 0.00 0.00 0.00 0.00 0.00 0.00 0.00 0.00 0.00 0.00 0.00 0.00 0.00 0.00 0.00 0.00 0.00 0.05 0.01 0.00 0.00 0.00 0.00 0.00 0.09 0.12 0.10 0.03 0.01 0.00 0.00 0.00 0.00 0.00 0.00
0.00 0.00 0.00 0.00 0.00 0.00 0.00 0.00 0.00 0.00 0.00 0.00 0.00 0.00 0.00 0.00 0.00 0.00 0.01 0.01 0.00 0.00 0.00 0.00 0.00 0.00 0.00 0.00 0.00 0.00 0.00 0.00 0.00 0.00 0.00 0.00 0.00 0.01 0.01 0.00 0.01 0.07 0.00 0.01 0.00 0.00 0.00 0.00 0.00
0.00 0.00 0.00 0.00 0.00 0.00 0.00 0.00 0.00 0.00 0.00 0.00 0.00 0.00 0.00 0.00 0.00 0.00 0.00 0.00 0.00 0.00 0.01 0.00 0.00 0.00 0.00 0.00 0.00 0.00 0.00 0.00 0.00 0.00 0.00 0.00 0.05 0.09 0.06 0.00 0.02 0.12 0.17 0.11 0.01 0.01 0.00 0.00 0.00
0.00 0.00 0.00 0.00 0.00 0.00 0.00 0.00 0.00 0.00 0.00 0.00 0.00 0.01 0.00 0.00 0.00 0.00 0.00 0.00 0.00 0.00 0.00 0.02 0.02 0.00 0.01 0.01 0.03 0.00 0.00 0.00 0.00 0.00 0.00 0.00 0.03 0.07 0.05 0.03 0.04 0.10 0.08 0.06 0.05 0.03 0.02 0.00 0.00
0.00 0.00 0.00 0.00 0.00 0.00 0.00 0.00 0.00 0.00 0.00 0.00 0.00 0.00 0.00 0.00 0.00 0.00 0.00 0.00 0.00 0.00 0.00 0.04 0.03 0.00 0.04 0.16 0.11 0.01 0.00 0.00 0.00 0.00 0.00 0.00 0.01 0.02 0.00 0.00 0.00 0.01 0.03 0.03 0.03 0.01 0.00 0.00 0.00
0.00 0.00 0.00 0.00 0.00 0.00 0.00 0.00 0.00 0.00 0.01 0.00 0.00 0.00 0.00 0.00 0.00 0.00 0.00 0.00 0.00 0.00 0.00 0.01 0.03 0.03 0.04 0.16 0.10 0.00 0.00 0.00 0.00 0.00 0.00 0.00 0.00 0.00 0.00 0.00 0.00 0.03 0.00 0.00 0.00 0.00 0.00 0.01 0.02
0.00 0.00 0.00 0.00 0.00 0.00 0.00 0.00 0.00 0.00 0.00 0.00 0.00 0.00 0.00 0.00 0.00 0.00 0.00 0.00 0.00 0.00 0.00 0.00 0.07 0.14 0.16 0.11 0.05 0.00 0.00 0.00 0.00 0.00 0.00 0.00 0.00 0.00 0.00 0.00 0.00 0.00 0.05 0.03 0.01 0.00 0.00 0.01 0.03
0.00 0.00 0.00 0.00 0.00 0.00 0.00 0.00 0.00 0.00 0.00 0.01 0.00 0.00 0.00 0.00 0.00 0.00 0.00 0.00 0.00 0.00 0.00 0.00 0.03 0.06 0.03 0.05 0.02 0.00 0.00 0.00 0.00 0.00 0.00 0.00 0.00 0.00 0.00 0.00 0.00 0.09 0.08 0.03 0.03 0.00 0.05 0.01 0.02
0.00 0.00 0.00 0.00 0.00 0.00 0.00 0.00 0.00 0.00 0.00 0.00 0.00 0.00 0.00 0.00 0.00 0.00 0.00 0.00 0.00 0.00 0.00 0.00 0.00 0.03 0.03 0.03 0.03 0.00 0.00 0.04 0.04 0.00 0.00 0.00 0.00 0.00 0.00 0.00 0.06 0.13 0.07 0.01 0.00 0.00 0.08 0.07 0.01
0.00 0.00 0.00 0.00 0.00 0.00 0.00 0.00 0.00 0.00 0.00 0.00 0.00 0.00 0.00 0.00 0.00 0.00 0.00 0.00 0.00 0.00 0.00 0.00 0.00 0.00 0.03 0.04 0.01 0.00 0.00 0.02 0.02 0.00 0.00 0.00 0.00 0.00 0.00 0.01 0.02 0.05 0.02 0.00 0.00 0.00 0.03 0.07 0.05
0.00 0.00 0.00 0.00 0.00 0.00 0.00 0.00 0.00 0.00 0.00 0.00 0.00 0.00 0.00 0.00 0.00 0.00 0.00 0.00 0.00 0.00 0.00 0.00 0.00 0.00 0.00 0.00 0.00 0.00 0.00 0.00 0.00 0.00 0.00 0.00 0.00 0.01 0.01 0.00 0.00 0.00 0.00 0.00 0.00 0.00 0.01 0.02 0.03
0.00 0.00 0.00 0.00 0.00 0.00 0.00 0.00 0.00 0.00 0.00 0.00 0.00 0.00 0.00 0.00 0.00 0.00 0.00 0.00 0.01 0.02 0.00 0.00 0.00 0.00 0.00 0.00 0.00 0.00 0.00 0.00 0.00 0.00 0.00 0.00 0.01 0.05 0.01 0.00 0.01 0.00 0.01 0.00 0.00 0.00 0.00 0.01 0.11
0.00 0.00 0.00 0.00 0.00 0.00 0.00 0.00 0.00 0.00 0.00 0.00 0.00 0.00 0.00 0.00 0.00 0.00 0.00 0.00 0.08 0.06 0.01 0.01 0.00 0.00 0.00 0.00 0.00 0.00 0.00 0.00 0.00 0.00 0.00 0.00 0.01 0.04 0.02 0.02 0.06 0.03 0.00 0.00 0.00 0.00 0.00 0.05 0.04
0.00 0.00 0.00 0.00 0.00 0.00 0.00 0.00 0.00 0.00 0.00 0.00 0.00 0.00 0.00 0.00 0.00 0.00 0.00 0.00 0.12 0.06 0.00 0.00 0.00 0.00 0.00 0.00 0.00 0.00 0.00 0.00 0.00 0.00 0.00 0.00 0.00 0.00 0.01 0.00 0.01 0.01 0.02 0.00 0.00 0.00 0.00 0.08 0.06
0.00 0.00 0.00 0.00 0.00 0.00 0.00 0.00 0.00 0.00 0.00 0.00 0.00 0.00 0.00 0.02 0.00 0.00 0.00 0.00 0.00 0.04 0.03 0.00 0.00 0.00 0.00 0.00 0.00 0.00 0.00 0.00 0.00 0.00 0.00 0.03 0.08 0.00 0.00 0.00 0.01 0.00 0.01 0.00 0.00 0.01 0.00 0.02 0.06
0.00 0.00 0.00 0.00 0.00 0.00 0.00 0.00 0.00 0.00 0.00 0.00 0.00 0.00 0.00 0.02 0.03 0.00 0.00 0.00 0.00 0.09 0.07 0.02 0.02 0.01 0.00 0.00 0.00 0.00 0.00 0.00 0.00 0.00 0.00 0.00 0.07 0.04 0.00 0.00 0.04 0.04 0.02 0.01 0.00 0.01 0.00 0.00 0.09
0.00 0.00 0.00 0.00 0.00 0.00 0.00 0.00 0.00 0.00 0.00 0.00 0.00 0.00 0.00 0.00 0.01 0.01 0.01 0.00 0.01 0.07 0.13 0.03 0.03 0.01 0.00 0.00 0.00 0.00 0.00 0.00 0.00 0.00 0.00 0.00 0.02 0.02 0.03 0.00 0.03 0.09 0.08 0.04 0.06 0.01 0.00 0.00 0.00
0.00 0.00 0.00 0.00 0.00 0.00 0.00 0.00 0.00 0.00 0.00 0.00 0.00 0.00 0.00 0.00 0.01 0.01 0.00 0.00 0.00 0.01 0.05 0.06 0.03 0.00 0.00 0.00 0.00 0.00 0.00 0.03 0.00 0.00 0.00 0.00 0.01 0.01 0.02 0.03 0.06 0.23 0.20 0.08 0.01 0.00 0.00 0.01 0.06
0.00 0.00 0.00 0.00 0.00 0.00 0.00 0.00 0.00 0.00 0.00 0.00 0.00 0.00 0.00 0.00 0.00 0.00 0.00 0.00 0.00 0.00 0.00 0.04 0.03 0.01 0.00 0.00 0.00 0.00 0.00 0.00 0.00 0.00 0.00 0.00 0.00 0.00 0.00 0.00 0.00 0.01 0.08 0.01 0.00 0.00 0.00 0.00 0.00
MSLP
1009.31 1009.42 1009.54 1009.65 1010.81 1011.31 1011.98 1012.10 1011.64 1011.52 1011.28 1010.98 1010.74 1010.90 1011.50 1012.11 1012.68 1013.79 1013.40 1013.43 1013.53 1013.97 1014.36 1014.77 1015.19 1015.48 1015.80 1016.08 1016.08 1016.35 1016.54 1016.66 1016.73 1016.91 1017.17 1017.27 1017.31 1017.43 1017.63 1017.78 1017.80 1017.85 1017.92 1018.02 1018.24 1018.40 1018.38 1018.54 1018.70
1009.39 1009.57 1009.72 1010.11 1011.25 1012.09 1012.25 1011.79 1011.55 1011.25 1010.96 1010.77 1010.65 1010.70 1011.34 1012.28 1012.70 1013.30 1013.56 1013.64 1013.54 1013.93 1014.44 1014.91 1015.27 1015.69 1015.94 1016.26 1016.37 1016.59 1016.74 1016.83 1016.96 1017.14 1017.34 1017.43 1017.53 1017.57 1017.71 1017.75 1017.85 1017.84 1017.96 1018.10 1018.30 1018.45 1018.51 1018.62 1018.73
1009.53 1009.47 1010.04 1010.78 1011.85 1012.32 1012.08 1011.51 1011.23 1010.84 1010.79 1010.75 1010.74 1010.89 1011.53 1012.42 1013.10 1013.41 1013.46 1013.78 1013.91 1014.16 1014.60 1014.99 1015.44 1015.81 1016.11 1016.25 1016.35 1016.70 1017.00 1017.08 1017.14 1017.36 1017.60 1017.68 1017.80 1017.80 1017.78 1017.81 1017.84 1017.88 1017.96 1018.08 1018.37 1018.48 1018.53 1018.75 1018.79
1009.53 1009.83 1010.46 1011.02 1011.64 1011.75 1011.58 1011.22 1011.10 1010.79 1010.31 1010.31 1010.62 1011.38 1011.91 1012.19 1012.97 1013.31 1013.78 1014.06 1014.27 1014.60 1014.79 1015.04 1015.41 1015.78 1016.14 1016.26 1016.41 1016.73 1016.91 1017.18 1017.37 1017.58 1017.80 1017.93 1017.91 1017.94 1017.95 1018.01 1017.96 1017.92 1018.09 1018.38 1018.46 1018.48 1018.60 1018.77 1018.81
1009.77 1010.52 1011.36 1011.84 1011.72 1011.36 1011.15 1010.91 1010.74 1010.56 1010.32 1010.07 1010.49 1011.73 1012.60 1013.03 1013.08 1013.54 1014.00 1014.32 1014.49 1014.91 1015.01 1015.19 1015.47 1015.76 1015.98 1016.29 1016.49 1016.73 1016.90 1017.20 1017.41 1017.69 1017.83 1017.83 1017.91 1017.91 1017.97 1018.01 1017.95 1018.06 1018.22 1018.38 1018.52 1018.65 1018.75 1018.83 1018.96
1010.11 1011.05 1011.90 1012.19 1011.61 1011.08 1010.81 1010.45 1010.36 1010.20 1009.96 1010.26 1010.59 1011.84 1012.97 1013.48 1013.46 1013.94 1014.14 1014.56 1014.61 1015.02 1015.18 1015.38 1015.63 1015.82 1016.08 1016.35 1016.61 1016.83 1016.97 1017.24 1017.50 1017.68 1017.78 1017.92 1017.96 1017.92 1018.01 1018.03 1018.01 1018.15 1018.26 1018.39 1018.49 1018.68 1018.86 1019.02 1019.04
1010.44 1011.38 1011.97 1012.01 1011.57 1010.86 1010.38 1010.24 1010.26 1009.93 1009.87 1010.18 1010.55 1012.03 1013.30 1013.69 1013.88 1014.03 1014.37 1014.77 1014.98 1015.13 1015.38 1015.55 1015.73 1015.90 1016.12 1016.33 1016.45 1016.72 1016.92 1017.23 1017.56 1017.70 1017.79 1017.95 1018.07 1018.09 1018.12 1018.12 1018.22 1018.39 1018.41 1018.44 1018.46 1018.66 1018.96 1019.11 1019.10
1010.29 1011.27 1011.85 1011.73 1011.30 1010.43 1009.91 1010.01 1009.97 1009.97 1009.96 1010.00 1010.42 1011.71 1013.01 1013.39 1013.92 1014.15 1014.67 1015.11 1015.31 1015.47 1015.56 1015.76 1015.91 1016.14 1016.32 1016.41 1016.57 1016.76 1016.96 1017.21 1017.43 1017.67 1017.72 1017.87 1018.19 1018.17 1018.12 1018.28 1018.41 1018.56 1018.52 1018.66 1018.63 1018.68 1018.87 1019.02 1019.13
1010.22 1011.17 1011.56 1011.11 1010.68 1009.91 1009.82 1009.91 1009.95 1009.72 1010.01 1010.24 1010.64 1011.19 1011.72 1012.90 1013.85 1014.47 1015.05 1015.54 1015.70 1015.83 1015.96 1015.94 1016.16 1016.35 1016.40 1016.55 1016.61 1016.71 1016.91 1017.20 1017.35 1017.55 1017.71 1017.88 1018.21 1018.26 1018.30 1018.39 1018.61 1018.36 1019.09 1018.58 1018.72 1018.64 1018.81 1018.97 1019.09
1010.31 1010.97 1010.46 1009.81 1009.54 1009.47 1009.52 1009.71 1009.84 1009.99 1010.30 1010.58 1011.11 1011.59 1012.12 1012.93 1013.75 1014.38 1015.03 1015.34 1015.64 1015.79 1016.02 1016.06 1016.15 1016.33 1016.41 1016.58 1016.79 1016.87 1016.99 1017.12 1017.41 1017.71 1017.93 1018.03 1018.19 1018.36 1018.40 1018.45 1018.54 1018.95 1018.99 1018.73 1018.62 1018.68 1018.68 1018.91 1019.31
1009.92 1009.97 1009.32 1008.74 1008.70 1008.85 1009.24 1009.68 1009.78 1010.08 1010.45 1010.31 1010.76 1011.72 1012.34 1013.12 1013.94 1014.33 1014.73 1014.98 1015.13 1015.47 1015.85 1015.95 1016.09 1016.25 1016.33 1016.52 1016.79 1016.99 1017.20 1017.40 1017.65 1017.81 1017.86 1018.09 1018.12 1018.28 1018.35 1018.52 1018.57 1018.80 1018.72 1018.76 1018.60 1018.72 1018.91 1019.05 1019.35
1009.60 1008.80 1008.74 1008.33 1008.35 1008.66 1009.18 1009.32 1009.69 1009.81 1009.82 1009.68 1010.34 1010.98 1012.03 1012.94 1013.58 1014.05 1014.42 1014.71 1015.07 1015.31 1015.49 1015.78 1015.88 1016.17 1016.38 1016.60 1016.82 1017.12 1017.36 1017.62 1017.84 1017.84 1017.94 1018.03 1018.20 1018.21 1018.32 1018.56 1018.67 1018.69 1018.61 1018.61 1018.72 1018.75 1018.84 1019.04 1019.33
1009.08 1008.50 1008.04 1007.69 1008.12 1008.60 1008.85 1009.25 1009.64 1009.73 1009.82 1009.97 1010.59 1011.44 1011.88 1012.51 1013.18 1013.80 1013.99 1014.42 1014.90 1015.15 1015.32 1015.50 1015.83 1016.06 1016.27 1016.61 1016.84 1017.22 1017.37 1017.52 1017.69 1017.79 1017.91 1017.99 1018.10 1018.23 1018.15 1018.21 1018.41 1018.65 1018.44 1018.47 1018.59 1018.77 1018.72 1018.96 1019.20
1008.90 1008.38 1007.92 1007.57 1007.84 1008.36 1008.95 1009.42 1009.67 1009.75 1009.83 1010.32 1010.78 1011.37 1011.81 1012.26 1012.79 1013.53 1013.86 1014.12 1014.54 1014.76 1015.01 1015.43 1015.67 1015.78 1016.11 1016.41 1016.62 1017.11 1017.27 1017.41 1017.58 1017.63 1017.76 1017.91 1018.12 1018.14 1018.19 1018.12 1018.27 1018.58 1018.56 1018.31 1018.42 1018.69 1018.73 1018.77 1019.04
1008.92 1008.85 1008.16 1008.00 1008.21 1008.60 1008.82 1009.71 1009.70 1009.68 1009.83 1009.91 1010.39 1011.01 1011.48 1011.77 1012.33 1012.56 1012.97 1013.46 1013.77 1014.18 1014.71 1015.18 1015.55 1015.63 1016.05 1016.28 1016.32 1016.85 1017.03 1017.27 1017.43 1017.43 1017.60 1017.72 1018.01 1018.05 1018.08 1018.21 1018.58 1018.66 1018.48 1018.45 1018.52 1018.66 1018.81 1018.86 1018.92
1009.50 1009.51 1009.39 1008.36 1008.36 1008.60 1009.17 1009.30 1009.34 1009.55 1009.90 1010.38 1010.40 1010.56 1010.67 1011.34 1011.46 1011.87 1012.27 1012.77 1013.40 1013.93 1014.39 1014.88 1015.38 1015.67 1015.91 1016.18 1016.18 1016.51 1016.83 1017.14 1017.21 1017.35 1017.39 1017.50 1017.75 1018.00 1018.12 1018.31 1018.51 1018.51 1018.37 1018.42 1018.42 1018.70 1018.98 1019.02 1018.96
1010.72 1010.55 1010.00 1009.13 1008.47 1008.83 1009.40 1009.40 1009.38 1009.55 1009.79 1010.22 1010.41 1010.66 1010.66 1010.83 1011.02 1011.29 1011.57 1012.03 1012.61 1013.16 1013.88 1014.51 1015.07 1015.42 1015.66 1016.02 1016.16 1016.40 1016.73 1017.07 1017.15 1017.26 1017.22 1017.33 1017.44 1017.76 1018.00 1018.17 1018.32 1018.62 1018.36 1018.42 1018.53 1018.86 1018.88 1018.86 1018.89
1011.56 1011.15 1010.39 1009.85 1008.78 1008.80 1009.14 1009.10 1009.54 1009.48 1009.70 1009.62 1010.10 1010.22 1010.19 1010.23 1010.07 1010.34 1010.73 1011.51 1012.12 1012.78 1013.49 1014.08 1014.76 1015.19 1015.53 1015.98 1016.35 1016.49 1016.89 1017.02 1017.04 1017.07 1017.02 1017.16 1017.28 1017.57 1017.90 1018.05 1018.23 1018.53 1018.59 1018.66 1018.54 1018.68 1018.89 1018.91 1018.75
1011.47 1011.34 1010.97 1008.99 1008.30 1008.85 1008.69 1008.87 1008.96 1009.18 1009.96 1010.14 1009.97 1009.92 1009.99 1009.71 1009.52 1009.85 1010.27 1010.90 1011.79 1012.57 1013.24 1013.69 1014.45 1014.79 1015.54 1016.09 1016.39 1016.74 1016.85 1017.03 1017.05 1016.91 1016.78 1017.09 1017.20 1017.35 1017.81 1017.99 1018.22 1018.53 1018.51 1018.25 1018.41 1018.57 1018.74 1018.77 1018.89
1011.18 1011.16 1010.15 1008.91 1008.24 1008.58 1008.85 1008.94 1008.53 1008.84 1008.95 1009.53 1009.80 1009.67 1009.55 1009.67 1009.59 1009.75 1010.11 1010.76 1011.32 1011.98 1012.74 1013.40 1013.83 1014.49 1014.90 1015.29 1015.83 1016.22 1016.55 1016.79 1016.80 1016.64 1016.63 1016.74 1016.98 1017.14 1017.55 1017.78 1017.99 1018.07 1018.30 1018.15 1018.25 1018.41 1018.57 1018.68 1018.87
1010.68 1010.76 1009.90 1009.57 1008.95 1009.04 1009.28 1009.03 1008.40 1008.15 1008.60 1009.00 1008.93 1008.81 1009.11 1009.18 1009.16 1009.51 1009.92 1010.30 1010.97 1011.68 1012.33 1012.88 1013.49 1014.06 1014.57 1014.96 1015.60 1016.12 1016.40 1016.65 1016.75 1016.64 1016.60 1016.47 1016.57 1016.79 1017.18 1017.54 1017.69 1017.81 1018.06 1017.93 1018.01 1018.15 1018.43 1018.62 1018.84
1009.81 1009.29 1009.29 1009.51 1009.74 1009.93 1009.93 1010.03 1008.62 1008.31 1008.24 1008.33 1008.23 1008.39 1008.32 1008.64 1008.63 1009.09 1009.50 1009.95 1010.43 1011.03 1011.88 1012.59 1013.15 1013.86 1014.31 1014.76 1015.32 1015.70 1015.99 1016.39 1016.37 1016.29 1016.33 1016.37 1016.47 1016.72 1016.92 1017.07 1017.34 1017.49 1017.62 1017.75 1017.83 1017.90 1018.14 1018.45 1018.61
1009.04 1008.96 1009.51 1009.85 1010.43 1010.60 1010.89 1011.03 1008.59 1008.55 1008.06 1007.76 1007.37 1007.24 1007.52 1007.99 1008.25 1008.43 1008.78 1009.22 1009.94 1010.78 1011.75 1012.65 1013.05 1013.47 1014.02 1014.58 1015.00 1015.38 1015.79 1015.94 1015.99 1016.19 1016.27 1016.44 1016.52 1016.83 1016.74 1016.86 1017.08 1017.32 1017.43 1017.53 1017.64 1017.80 1018.01 1018.34 1018.56
1008.55 1009.33 1010.08 1010.94 1011.27 1011.70 1011.40 1011.23 1009.16 1008.66 1008.12 1007.34 1007.03 1006.71 1006.86 1007.31 1007.73 1008.22 1008.77 1009.31 1010.10 1010.71 1011.45 1012.17 1012.78 1013.14 1013.62 1014.23 1014.75 1015.12 1015.48 1015.73 1016.01 1016.20 1016.26 1016.40 1016.56 1016.68 1016.70 1016.83 1017.01 1016.89 1017.03 1017.14 1017.20 1017.38 1017.68 1017.95 1018.13
1008.79 1010.15 1011.27 1012.13 1012.45 1012.46 1011.58 1011.29 1009.34 1008.04 1007.13 1006.64 1006.30 1006.26 1006.14 1006.68 1007.15 1007.78 1008.19 1008.94 1009.30 1009.42 1010.50 1011.56 1012.40 1012.86 1013.29 1013.78 1014.39 1014.83 1015.13 1015.48 1015.72 1015.94 1016.11 1016.35 1016.53 1016.57 1016.52 1016.81 1016.95 1016.80 1016.67 1016.76 1016.83 1017.11 1017.40 1017.68 1017.99
1008.66 1009.77 1011.12 1012.35 1013.29 1012.58 1011.56 1010.55 1008.24 1007.54 1006.98 1006.55 1005.94 1005.59 1005.80 1006.47 1006.84 1007.18 1007.47 1008.09 1008.53 1009.10 1010.07 1010.85 1011.80 1012.52 1012.89 1013.34 1013.80 1014.28 1014.69 1015.15 1015.42 1015.57 1015.81 1016.05 1016.35 1016.25 1016.26 1016.43 1016.46 1016.59 1016.60 1016.69 1016.72 1016.96 1017.20 1017.34 1017.58
1008.53 1009.51 1010.12 1011.78 1013.26 1013.20 1011.60 1009.93 1008.04 1007.50 1006.79 1006.72 1006.31 1006.00 1006.22 1006.48 1006.58 1006.99 1007.12 1007.55 1008.28 1009.35 1009.82 1010.25 1011.09 1011.76 1012.43 1012.82 1013.34 1013.90 1014.32 1014.71 1015.00 1015.30 1015.49 1015.77 1015.98 1016.07 1016.01 1015.99 1016.21 1016.17 1016.31 1016.49 1016.79 1016.86 1017.02 1017.15 1017.26
1007.48 1008.73 1010.16 1011.72 1013.11 1013.34 1011.94 1010.72 1009.37 1007.97 1007.71 1007.30 1006.61 1006.18 1006.03 1005.95 1006.37 1006.86 1007.36 1007.78 1008.22 1008.64 1008.50 1009.62 1010.60 1011.06 1011.66 1012.41 1012.82 1013.36 1013.78 1014.13 1014.54 1014.98 1015.24 1015.47 1015.67 1015.74 1015.99 1015.90 1015.97 1016.09 1016.24 1016.46 1016.84 1016.81 1016.79 1016.85 1017.02
1007.78 1008.64 1010.19 1011.65 1012.67 1013.14 1012.56 1010.89 1008.68 1008.49 1008.13 1007.66 1006.85 1006.26 1005.79 1005.63 1005.91 1006.60 1007.31 1007.57 1007.93 1008.08 1008.49 1009.44 1010.12 1010.88 1011.52 1012.03 1012.41 1012.84 1013.24 1013.73 1014.01 1014.53 1014.81 1015.02 1015.31 1015.46 1015.64 1015.77 1015.92 1016.17 1016.28 1016.36 1016.56 1016.47 1016.52 1016.65 1016.72
1007.37 1008.32 1009.51 1011.51 1012.77 1013.09 1012.42 1010.03 1007.91 1008.03 1007.90 1007.43 1006.62 1005.83 1005.49 1005.42 1005.59 1006.23 1007.29 1007.50 1007.95 1008.29 1008.65 1009.25 1009.93 1010.43 1010.90 1011.44 1011.94 1012.42 1012.74 1013.12 1013.67 1014.11 1014.40 1014.69 1014.99 1015.13 1015.29 1015.46 1015.64 1015.91 1016.18 1016.21 1016.19 1016.15 1016.13 1016.31 1016.39
Thickness
5820 5819 5819 5811 5776 5764 5751 5758 5774 5771 5771 5784 5788 5783 5773 5770 5763 5747 5778 5780 5782 5778 5774 5769 5765 5761 5759 5757 5759 5757 5756 5757 5756 5755 5753 5753 5753 5752 5749 5747 5748 5747 5744 5743 5740 5738 5735 5733 5731
5820 5819 5813 5796 5756 5738 5745 5769 5765 5774 5782 5789 5790 5788 5779 5763 5774 5771 5772 5778 5779 5776 5772 5769 5764 5760 5757 5757 5756 5756 5755 5755 5755 5754 5751 5751 5751 5750 5749 5750 5747 5746 5745 5743 5740 5737 5734 5732 5729
5820 5821 5796 5775 5752 5740 5747 5769 5774 5784 5788 5785 5782 5790 5779 5767 5772 5772 5778 5778 5775 5773 5770 5768 5763 5760 5758 5757 5756 5756 5754 5753 5753 5751 5749 5749 5749 5749 5750 5749 5746 5746 5746 5744 5739 5736 5735 5732 5730
5813 5805 5795 5765 5761 5768 5769 5777 5782 5781 5794 5797 5790 5772 5782 5787 5776 5779 5778 5775 5773 5770 5768 5766 5763 5760 5759 5759 5758 5756 5755 5753 5751 5749 5748 5748 5749 5748 5749 5747 5746 5746 5745 5743 5739 5736 5734 5732 5730
5811 5790 5762 5756 5763 5775 5781 5784 5785 5782 5786 5795 5793 5769 5769 5779 5781 5780 5776 5773 5770 5767 5765 5765 5764 5761 5760 5760 5759 5757 5755 5752 5750 5747 5747 5748 5748 5748 5748 5746 5747 5746 5744 5742 5739 5736 5733 5732 5731
5788 5783 5751 5744 5761 5777 5781 5790 5790 5789 5792 5789 5785 5774 5769 5777 5776 5775 5775 5770 5768 5767 5765 5764 5763 5761 5761 5760 5759 5758 5755 5752 5749 5747 5747 5747 5748 5748 5747 5748 5747 5745 5744 5742 5738 5735 5732 5731 5731
5782 5767 5756 5758 5762 5772 5781 5794 5784 5788 5786 5783 5791 5765 5767 5769 5774 5776 5773 5769 5766 5765 5764 5763 5762 5762 5761 5760 5760 5759 5756 5753 5750 5748 5748 5747 5747 5747 5747 5748 5746 5743 5741 5740 5740 5735 5733 5732 5732
5788 5773 5760 5759 5758 5769 5791 5792 5795 5789 5784 5801 5797 5766 5757 5770 5775 5775 5770 5766 5764 5763 5763 5762 5761 5760 5760 5761 5760 5759 5757 5754 5752 5748 5747 5749 5747 5748 5748 5747 5744 5740 5738 5739 5739 5736 5734 5734 5733
5798 5758 5748 5765 5765 5781 5792 5786 5795 5802 5789 5792 5792 5783 5785 5780 5775 5769 5764 5761 5760 5761 5761 5761 5760 5759 5760 5760 5761 5761 5759 5755 5753 5752 5751 5750 5750 5749 5748 5747 5743 5737 5736 5740 5738 5738 5737 5736 5735
5779 5753 5766 5787 5788 5785 5791 5790 5789 5787 5783 5782 5782 5783 5784 5779 5772 5765 5760 5759 5759 5759 5761 5762 5761 5759 5760 5760 5761 5761 5760 5757 5754 5753 5752 5753 5751 5750 5749 5747 5742 5739 5740 5741 5741 5740 5740 5739 5736
5783 5765 5786 5795 5796 5798 5791 5787 5795 5782 5773 5785 5778 5776 5779 5774 5769 5766 5763 5763 5764 5764 5762 5763 5763 5762 5762 5762 5762 5760 5758 5757 5754 5754 5755 5754 5753 5753 5751 5748 5747 5745 5744 5744 5744 5743 5742 5741 5740
5777 5795 5794 5800 5799 5795 5785 5793 5786 5787 5789 5800 5794 5790 5781 5773 5769 5767 5765 5765 5763 5763 5764 5764 5764 5763 5762 5762 5761 5759 5757 5755 5754 5755 5756 5755 5754 5755 5753 5750 5747 5747 5749 5748 5746 5745 5744 5743 5741
5783 5794 5801 5806 5800 5795 5795 5787 5785 5785 5794 5799 5793 5785 5781 5776 5771 5770 5770 5769 5766 5762 5763 5765 5764 5763 5763 5761 5760 5759 5758 5756 5755 5756 5756 5755 5755 5754 5755 5754 5751 5749 5751 5750 5749 5748 5748 5745 5742
5793 5792 5795 5804 5799 5796 5784 5783 5786 5788 5795 5791 5791 5784 5781 5776 5774 5770 5768 5768 5766 5767 5765 5765 5765 5765 5763 5762 5762 5759 5759 5757 5756 5757 5757 5757 5755 5755 5755 5755 5753 5749 5751 5753 5752 5749 5749 5748 5745
5794 5780 5790 5795 5793 5787 5789 5770 5772 5789 5793 5791 5788 5786 5785 5781 5778 5777 5776 5773 5773 5771 5768 5765 5765 5764 5764 5763 5763 5762 5760 5758 5757 5757 5758 5758 5756 5756 5756 5754 5751 5751 5751 5753 5754 5751 5748 5747 5747
5777 5771 5751 5786 5791 5790 5781 5754 5782 5788 5787 5783 5786 5785 5787 5785 5783 5782 5782 5780 5776 5773 5769 5768 5765 5764 5764 5763 5764 5763 5761 5759 5759 5757 5759 5760 5758 5756 5754 5753 5752 5752 5753 5754 5754 5753 5748 5747 5748
5753 5742 5751 5763 5789 5783 5775 5762 5780 5785 5785 5779 5782 5782 5781 5782 5786 5786 5787 5785 5781 5777 5773 5768 5766 5764 5764 5762 5762 5763 5761 5759 5758 5758 5759 5761 5761 5758 5756 5755 5754 5752 5753 5753 5752 5750 5751 5750 5750
5740 5740 5749 5748 5778 5781 5771 5769 5773 5781 5782 5782 5780 5782 5783 5782 5787 5793 5791 5787 5783 5780 5776 5771 5767 5764 5763 5762 5760 5760 5759 5758 5758 5759 5760 5761 5761 5759 5756 5756 5755 5754 5753 5751 5752 5752 5751 5750 5751
5754 5746 5742 5770 5787 5775 5772 5775 5775 5780 5774 5770 5775 5776 5777 5783 5792 5795 5793 5791 5784 5779 5775 5773 5768 5768 5763 5759 5757 5755 5756 5757 5757 5759 5761 5761 5761 5760 5757 5756 5755 5754 5754 5757 5754 5753 5750 5751 5750
5752 5744 5748 5769 5787 5779 5772 5767 5780 5781 5780 5776 5771 5774 5777 5779 5784 5788 5790 5788 5786 5782 5777 5772 5772 5769 5767 5764 5761 5760 5758 5757 5758 5759 5761 5762 5762 5762 5760 5758 5757 5757 5756 5757 5756 5754 5751 5751 5750
5748 5742 5751 5756 5776 5776 5768 5758 5774 5786 5782 5780 5781 5783 5781 5780 5783 5783 5787 5788 5785 5780 5776 5773 5772 5769 5767 5765 5761 5758 5758 5757 5755 5758 5760 5763 5764 5763 5761 5759 5759 5758 5758 5758 5757 5756 5753 5749 5749
5746 5769 5771 5765 5760 5734 5763 5723 5763 5775 5776 5780 5784 5782 5784 5785 5789 5787 5787 5787 5785 5783 5778 5774 5772 5768 5766 5764 5760 5759 5756 5753 5756 5759 5762 5763 5763 5763 5762 5762 5761 5760 5760 5759 5759 5758 5755 5753 5748
5762 5780 5772 5767 5752 5749 5745 5728 5757 5770 5774 5778 5786 5792 5791 5788 5789 5790 5791 5791 5788 5785 5778 5771 5770 5768 5766 5763 5762 5760 5757 5759 5761 5760 5761 5761 5762 5761 5763 5762 5761 5761 5761 5761 5759 5758 5755 5752 5748
5786 5771 5757 5743 5735 5721 5739 5738 5748 5762 5774 5782 5790 5795 5795 5794 5793 5792 5791 5791 5785 5785 5781 5774 5771 5767 5766 5763 5761 5760 5759 5760 5758 5758 5759 5760 5760 5761 5762 5761 5760 5762 5762 5761 5761 5761 5759 5756 5754
5767 5743 5708 5717 5708 5715 5731 5733 5748 5775 5788 5792 5793 5797 5802 5799 5797 5793 5795 5790 5790 5791 5785 5777 5772 5767 5766 5764 5762 5761 5760 5760 5760 5761 5760 5759 5759 5760 5761 5759 5759 5762 5762 5762 5762 5762 5761 5759 5755
5757 5747 5712 5710 5702 5715 5736 5733 5763 5789 5795 5799 5803 5808 5806 5798 5798 5797 5802 5797 5793 5783 5782 5780 5772 5766 5765 5765 5765 5763 5762 5761 5761 5763 5762 5761 5759 5761 5762 5761 5761 5760 5761 5762 5762 5762 5762 5762 5758
5761 5743 5758 5717 5708 5709 5727 5754 5782 5787 5793 5793 5798 5802 5801 5798 5798 5797 5803 5799 5795 5783 5780 5787 5778 5771 5766 5767 5767 5764 5762 5762 5761 5762 5763 5761 5760 5761 5761 5761 5761 5762 5762 5761 5762 5761 5760 5761 5760
5779 5770 5740 5721 5718 5712 5721 5736 5742 5773 5778 5784 5794 5797 5800 5804 5800 5796 5795 5794 5793 5793 5795 5790 5782 5776 5773 5767 5768 5766 5764 5764 5763 5762 5761 5761 5762 5762 5760 5762 5762 5762 5762 5760 5758 5760 5760 5760 5760
5765 5755 5736 5729 5714 5703 5700 5727 5767 5773 5778 5781 5793 5800 5805 5806 5804 5797 5793 5796 5794 5798 5795 5790 5784 5777 5772 5769 5769 5767 5765 5764 5765 5762 5762 5761 5761 5761 5760 5760 5760 5758 5759 5760 5758 5759 5760 5758 5757
5779 5765 5750 5724 5725 5702 5704 5726 5789 5784 5785 5790 5800 5809 5812 5813 5809 5804 5794 5796 5791 5793 5794 5791 5786 5782 5777 5773 5772 5768 5767 5766 5763 5762 5762 5762 5760 5762 5762 5760 5759 5757 5756 5758 5759 5760 5760 5758 5756